#timestamp,LO_Frequency,Hit,StdDev 
1552262415.5,286046995.3,N
1552262435.3,286046995.7,N
1552262455.1,286046997.0,N
1552262475.9,286047002.1,N
1552262495.7,286047004.1,N
1552262515.5,286047003.9,N
1552262535.4,286047004.2,N
1552262555.2,286047004.0,N
1552262575.1,286047002.4,N
1552262576.0,286047002.4,N
1552262595.8,286047000.6,N
1552262615.6,286046998.1,N
1552262635.5,286046998.8,N
1552262655.3,286046998.1,N
1552262675.1,286047001.1,N
1552262695.9,286046999.0,N
1552262715.7,286046999.5,N
1552262735.6,286046996.9,N
1552262755.4,286046997.0,N
1552262775.2,286046995.0,N
1552262795.1,286046997.0,N
1552262796.0,286046997.0,N
1552262815.8,286046996.8,N
1552262835.7,286046996.6,N
1552262855.5,286046999.3,N
1552262875.3,286046997.2,N
1552262895.2,286046996.5,N
1552262915.0,286046996.5,N
1552262915.9,286046996.5,N
1552262935.7,286046996.6,N
1552262955.6,286046996.7,N
1552262975.4,286046997.4,N
1552262995.3,286046995.5,N
1552263015.1,286046997.5,N
1552263035.8,286046995.5,N
1552263055.7,286046995.8,N
1552263075.5,286046993.4,N
1552263095.4,286046994.4,N
1552263115.2,286046995.5,N
1552263135.0,286046995.5,N
1552263135.9,286046995.5,N
1552263155.8,286046995.5,N
1552263175.6,286046994.8,Y
1552263195.5,286046997.5,P
1552263215.3,286046995.1,P
1552263235.1,286046995.2,P
1552263255.9,286046996.2,Y
1552263275.7,286046998.8,P
1552263295.5,286046998.6,N
1552263315.4,286046999.3,N
1552263335.2,286046998.3,N
1552263355.1,286047000.7,N
1552263356.0,286047000.7,N
1552263375.8,286047000.5,N
1552263395.6,286046999.7,N
1552263415.5,286047000.1,N
1552263435.3,286047001.6,N
1552263455.1,286047004.0,N
1552263475.9,286047001.4,N
1552263495.7,286047001.9,N
1552263515.6,286047002.2,N
1552263535.4,286047002.7,N
1552263555.2,286047000.0,N
1552263575.1,286046998.4,N
1552263576.0,286046998.4,N
1552263595.8,286046998.8,N
1552263615.6,286046996.5,N
1552263635.5,286046997.1,N
1552263655.3,286046997.0,N
1552263675.2,286046997.8,N
1552263695.9,286046997.4,N
1552263715.7,286046997.0,N
1552263735.6,286046997.7,N
1552263755.4,286046995.3,N
1552263775.2,286046999.4,N
1552263795.1,286046996.8,N
1552263796.0,286046996.8,N
1552263815.8,286046997.1,N
1552263835.7,286046995.7,N
1552263855.5,286046996.3,N
1552263875.3,286046996.1,N
1552263895.2,286046997.4,N
1552263915.0,286046996.5,N
1552263915.9,286046996.5,N
1552263935.7,286046999.1,N
1552263955.6,286046996.5,N
1552263975.4,286046995.4,N
1552263995.3,286046995.6,N
1552264015.1,286046993.7,Y
1552264035.8,286046999.6,P
1552264055.7,286046994.9,P
1552264075.5,286046996.1,N
1552264095.4,286046997.9,N
1552264115.2,286046996.1,N
1552264135.0,286046996.3,N
1552264135.9,286046996.3,N
1552264155.8,286046995.8,Y
1552264175.6,286047002.5,P
1552264195.4,286047001.7,N
1552264215.3,286047003.7,N
1552264235.1,286047001.4,N
1552264255.9,286047000.3,N
1552264275.7,286047000.2,N
1552264295.5,286046999.9,N
1552264315.4,286046998.1,N
1552264335.2,286047001.0,N
1552264355.0,286046998.2,N
1552264355.9,286046998.2,N
1552264375.8,286047001.2,N
1552264395.6,286047000.0,N
1552264415.5,286047001.0,N
1552264435.3,286047001.2,N
1552264455.1,286047000.3,N
1552264475.9,286047001.2,N
1552264495.7,286046998.4,N
1552264515.5,286047000.4,N
1552264535.4,286047000.6,N
1552264555.2,286047001.8,N
1552264575.1,286047001.3,N
1552264576.0,286047001.3,N
1552264595.8,286047003.5,N
1552264615.6,286047003.1,N
1552264635.5,286047003.8,N
1552264655.3,286047003.9,N
1552264675.1,286047001.8,N
1552264695.9,286046999.7,N
1552264715.7,286047000.9,N
1552264735.6,286047000.8,N
1552264755.4,286047000.5,N
1552264775.2,286047000.1,N
1552264795.1,286047003.5,N
1552264796.0,286047003.5,N
1552264815.8,286047007.5,Y
1552264835.6,286047005.3,P
1552264855.5,286047006.7,P
1552264875.3,286047005.0,N
1552264895.2,286047006.8,Y
1552264945.9,286047002.3,E
1552264955.9,286047000.7,N
1552264975.7,286046997.4,P
1552264995.5,286046998.7,N
1552265015.4,286046999.5,N
1552265035.2,286046997.7,N
1552265055.0,286046998.0,N
1552265055.9,286046998.0,N
1552265075.8,286046995.1,Y
1552265095.6,286046997.5,P
1552265115.5,286046997.4,P
1552265135.3,286046997.6,P
1552265155.1,286046994.9,Y
1552265175.9,286047001.2,P
1552265195.7,286046999.9,N
1552265215.5,286047001.2,N
1552265235.4,286046998.6,N
1552265255.2,286047000.5,N
1552265275.1,286047000.0,N
1552265276.0,286047000.0,N
1552265295.8,286047002.3,N
1552265315.6,286047002.1,N
1552265335.5,286046998.6,N
1552265355.3,286046998.9,N
1552265375.1,286046997.7,N
1552265395.9,286046994.9,Y
1552265415.7,286047000.9,P
1552265435.6,286047001.3,N
1552265455.4,286047003.6,P
1552265475.2,286047003.8,N
1552265495.1,286047001.7,N
1552265496.0,286047001.7,N
1552265515.8,286047002.8,N
1552265535.7,286047000.5,N
1552265555.5,286046998.7,N
1552265575.3,286046996.7,N
1552265595.2,286046994.9,N
1552265615.0,286046995.2,N
1552265615.9,286046995.2,N
1552265635.7,286046995.1,N
1552265655.6,286046997.5,N
1552265675.4,286046998.0,N
1552265695.3,286046998.9,N
1552265715.1,286047001.8,N
1552265735.8,286047003.4,N
1552265755.7,286047001.4,N
1552265775.5,286047002.8,N
1552265795.4,286046999.3,N
1552265815.2,286046999.5,N
1552265835.0,286047000.7,N
1552265835.9,286047000.7,N
1552265855.8,286047001.1,N
1552265875.6,286047000.0,N
1552265895.4,286046998.6,N
1552265915.3,286046999.1,N
1552265935.1,286046998.7,N
1552265955.9,286047000.8,N
1552265975.7,286046998.3,N
1552265995.5,286046998.3,N
